DW4725 Weather Reports


Display with metric or nautical units.
time (UTC)temp
F
wind
direction
speed
MPH
gust
MPH
rain 1hr
in
rain 24hr
in
rain mn
in
humidity
%
barometer
mb
20260505101753 53 238 3.0 10.0 0.00 0.38 0.28 94 1009.2
20260505101553 53 227 3.0 8.0 0.00 0.38 0.28 94 1009.2
20260505101347 53 243 2.0 8.0 0.00 0.38 0.28 94 1009.2
20260505100823 53 258 3.0 8.0 0.00 0.38 0.28 94 1009.0
20260505100620 53 240 3.0 8.0 0.00 0.38 0.28 95 1009.1
20260505100415 52 232 3.0 8.0 0.00 0.38 0.28 95 1009.0
20260505100215 52 237 3.0 8.0 0.00 0.38 0.28 94 1009.1
20260505100010 52 223 3.0 8.0 0.00 0.38 0.28 95 1009.0
20260505095803 52 248 2.0 6.0 0.00 0.38 0.28 95 1009.2
20260505095557 52 240 2.0 6.0 0.00 0.38 0.28 96 1009.1
20260505095357 52 238 1.0 5.0 0.00 0.38 0.28 96 1009.1
20260505095149 52 241 1.0 5.0 0.00 0.38 0.28 96 1009.2
20260505094941 51 235 1.0 5.0 0.00 0.38 0.28 95 1009.1
20260505094738 52 240 1.0 5.0 0.00 0.38 0.28 96 1009.1
20260505094535 52 245 1.0 5.0 0.00 0.38 0.28 96 1009.1
20260505094331 52 262 1.0 5.0 0.00 0.38 0.28 96 1009.1
20260505094124 52 229 1.0 5.0 0.00 0.38 0.28 96 1009.1
20260505093922 52 255 1.0 4.0 0.00 0.38 0.28 97 1009.1
20260505093717 51 236 1.0 3.0 0.00 0.38 0.28 96 1009.1
20260505093510 51 286 1.0 3.0 0.00 0.38 0.28 95 1009.1
20260505093302 52 286 1.0 3.0 0.00 0.38 0.28 95 1009.1
20260505093103 52 288 0.0 3.0 0.00 0.38 0.28 96 1009.1
20260505092857 52 266 0.0 3.0 0.00 0.38 0.28 95 1009.0
20260505092333 52 245 0.0 3.0 0.00 0.38 0.28 94 1009.0
20260505092123 52 276 0.0 1.0 0.00 0.38 0.28 95 1009.0
20260505091921 52 260 0.0 0.0 0.00 0.38 0.28 95 1009.0
20260505091717 52 271 0.0 0.0 0.00 0.38 0.28 95 1009.0
20260505091158 52 300 0.0 1.0 0.00 0.38 0.28 95 1009.0
20260505090958 52 227 0.0 0.0 0.00 0.38 0.28 95 1009.0
20260505090438 52 273 0.0 2.0 0.00 0.38 0.28 96 1008.9
20260505090234 52 45 0.0 2.0 0.00 0.38 0.28 97 1008.9
20260505090029 52 65 0.0 2.0 0.00 0.38 0.28 98 1008.9
20260505085820 52 23 0.0 0.0 0.00 0.38 0.28 98 1008.8
20260505085259 51 262 0.0 0.0 0.00 0.38 0.28 98 1008.8
20260505084735 51 238 0.0 0.0 0.00 0.38 0.28 98 1008.8
20260505084526 51 236 0.0 0.0 0.00 0.38 0.28 98 1008.8
20260505083323 50 242 0.0 0.0 0.00 0.38 0.28 98 1008.8
20260505083115 50 242 0.0 0.0 0.00 0.38 0.28 98 1008.8
20260505082914 50 242 0.0 0.0 0.00 0.38 0.28 98 1008.8
20260505082713 50 242 0.0 0.0 0.00 0.38 0.28 98 1008.8
20260505082513 50 242 0.0 0.0 0.00 0.38 0.28 98 1008.8
20260505081944 50 242 0.0 0.0 0.00 0.38 0.28 98 1008.7
20260505081047 50 268 0.0 0.0 0.00 0.38 0.28 98 1008.9
20260505080844 50 23 0.0 0.0 0.00 0.38 0.28 98 1008.8
20260505080635 50 51 0.0 0.0 0.00 0.38 0.28 98 1008.9
20260505080431 50 50 0.0 1.0 0.00 0.38 0.28 98 1008.9
20260505080223 50 45 0.0 1.0 0.00 0.38 0.28 98 1008.9
20260505080020 50 45 0.0 1.0 0.00 0.38 0.28 99 1008.9
20260505075144 49 61 0.0 1.0 0.00 0.38 0.28 99 1008.9
20260505074623 49 63 0.0 2.0 0.00 0.38 0.28 99 1008.9
20260505074417 49 65 0.0 2.0 0.00 0.38 0.28 99 1008.9
20260505074214 49 60 0.0 4.0 0.00 0.38 0.28 99 1008.9
20260505074004 49 55 0.0 4.0 0.00 0.38 0.28 99 1008.9
20260505073802 49 47 0.0 4.0 0.00 0.38 0.28 99 1008.8
20260505073556 49 117 0.0 4.0 0.00 0.38 0.28 99 1008.9
20260505073023 49 120 1.0 6.0 0.00 0.38 0.28 100 1008.9
20260505072820 49 95 1.0 6.0 0.00 0.38 0.28 100 1008.9
20260505072618 49 79 1.0 6.0 0.00 0.38 0.28 99 1009.0
20260505072052 48 70 2.0 6.0 0.00 0.38 0.28 99 1008.9
20260505071846 48 56 2.0 6.0 0.00 0.38 0.28 99 1008.9
20260505071637 48 82 2.0 6.0 0.00 0.38 0.28 99 1008.9
20260505071436 48 89 1.0 6.0 0.00 0.38 0.28 99 1009.0
20260505071227 48 57 1.0 5.0 0.00 0.38 0.28 100 1009.1
20260505070337 48 86 1.0 4.0 0.00 0.38 0.28 100 1009.2
20260505070135 48 88 0.0 4.0 0.00 0.38 0.28 100 1009.2
20260505065933 48 104 0.0 3.0 0.00 0.38 0.28 100 1009.2
20260505065414 48 98 0.0 2.0 0.00 0.38 0.28 100 1009.3
20260505065212 48 113 0.0 2.0 0.00 0.38 0.28 100 1009.4
20260505065012 48 119 0.0 2.0 0.00 0.38 0.28 100 1009.3
20260505064443 48 100 0.0 2.0 0.00 0.38 0.28 100 1009.3
20260505064242 48 103 0.0 2.0 0.00 0.38 0.28 100 1009.4
20260505064037 48 73 0.0 2.0 0.00 0.38 0.28 100 1009.3
20260505063828 48 113 0.0 2.0 0.00 0.38 0.28 100 1009.4
20260505063618 48 110 0.0 2.0 0.00 0.38 0.28 100 1009.4
20260505063414 48 110 0.0 2.0 0.03 0.38 0.28 100 1009.5
20260505062851 48 105 0.0 2.0 0.03 0.38 0.28 100 1009.6
20260505062650 48 103 0.0 2.0 0.03 0.38 0.28 100 1009.6
20260505062444 47 120 0.0 2.0 0.03 0.38 0.28 100 1009.6
20260505062237 48 110 0.0 1.0 0.03 0.38 0.28 100 1009.6
20260505061714 48 105 0.0 0.0 0.03 0.37 0.27 100 1009.7
20260505061512 47 105 0.0 0.0 0.03 0.37 0.27 100 1009.7
20260505060946 47 110 0.0 0.0 0.03 0.37 0.27 100 1009.8
20260505060746 47 240 0.0 0.0 0.03 0.37 0.27 100 1009.8
20260505060543 47 240 0.0 0.0 0.03 0.37 0.27 100 1009.8
20260505060023 47 240 0.0 0.0 0.04 0.37 0.26 100 1009.9
20260505055822 47 240 0.0 0.0 0.04 0.37 0.26 100 1009.9
20260505055619 47 240 0.0 0.0 0.04 0.37 0.26 100 1009.9
20260505055053 47 240 0.0 0.0 0.04 0.36 0.25 100 1010.0
20260505054851 47 240 0.0 0.0 0.06 0.36 0.25 100 1010.0
20260505054648 47 240 0.0 0.0 0.06 0.36 0.25 100 1010.0
20260505054123 47 240 0.0 0.0 0.06 0.35 0.25 100 1010.0
20260505053921 47 240 0.0 0.0 0.07 0.35 0.25 100 1010.0
20260505053714 47 240 0.0 0.0 0.07 0.35 0.25 100 1010.0
20260505053506 47 240 0.0 0.0 0.07 0.35 0.25 100 1010.0
20260505053301 47 240 0.0 3.0 0.06 0.34 0.24 100 1010.0
20260505053055 47 242 0.0 3.0 0.06 0.34 0.24 100 1010.0
20260505052848 47 243 0.0 3.0 0.06 0.34 0.24 100 1010.1
20260505052639 47 243 0.0 5.0 0.07 0.33 0.23 100 1010.0
20260505052436 47 241 0.0 5.0 0.10 0.33 0.23 100 1010.0
20260505052236 47 256 0.0 5.0 0.10 0.33 0.23 100 1010.1
20260505052033 47 244 1.0 5.0 0.10 0.33 0.23 100 1010.0
20260505051827 47 245 1.0 5.0 0.14 0.33 0.22 100 1010.0
20260505051617 47 249 1.0 6.0 0.14 0.33 0.22 100 1010.1
20260505051417 47 233 1.0 6.0 0.21 0.32 0.22 100 1010.0
20260505051217 47 234 1.0 6.0 0.23 0.31 0.21 100 1010.0
20260505051014 47 223 1.0 6.0 0.22 0.30 0.20 100 1010.0
20260505050805 47 237 1.0 6.0 0.17 0.29 0.20 100 1010.1
20260505050601 47 247 1.0 6.0 0.15 0.29 0.19 100 1010.1
20260505050352 47 240 1.0 6.0 0.22 0.29 0.18 100 1010.2
20260505050144 47 242 1.0 6.0 0.18 0.28 0.18 100 1010.2
20260505041426 47 236 3.0 9.0 0.05 0.18 0.08 100 1010.1
20260505041224 47 185 3.0 9.0 0.00 0.18 0.07 100 1010.1
20260505041016 47 197 3.0 8.0 0.00 0.18 0.07 100 1010.1
20260505040810 47 222 3.0 8.0 0.00 0.18 0.07 100 1010.1
20260505040609 47 197 2.0 8.0 0.00 0.18 0.07 100 1010.0
20260505035729 47 217 3.0 7.0 0.00 0.17 0.07 100 1010.1
20260505035523 47 249 3.0 7.0 0.00 0.17 0.07 100 1010.1
20260505035324 47 219 3.0 7.0 0.00 0.17 0.07 100 1010.2
20260505035120 47 213 2.0 7.0 0.00 0.17 0.07 99 1010.2
20260505034921 47 239 2.0 7.0 0.00 0.17 0.07 99 1010.2
20260505034719 47 243 2.0 7.0 0.00 0.17 0.07 99 1010.2
20260505034512 47 214 2.0 6.0 0.00 0.17 0.07 99 1010.2
20260505034312 47 202 2.0 6.0 0.00 0.17 0.07 99 1010.2
20260505034104 47 220 2.0 6.0 0.00 0.17 0.07 99 1010.3
20260505033859 47 228 2.0 6.0 0.00 0.17 0.07 99 1010.2
20260505033339 47 202 2.0 5.0 0.00 0.17 0.07 99 1010.3
20260505033139 47 236 1.0 4.0 0.00 0.17 0.07 99 1010.2
20260505032929 47 252 1.0 4.0 0.00 0.17 0.07 99 1010.3
20260505032720 47 242 1.0 4.0 0.00 0.17 0.07 99 1010.3
20260505032514 47 219 1.0 4.0 0.00 0.17 0.07 99 1010.2
20260505032307 47 216 0.0 2.0 0.00 0.17 0.07 99 1010.1
20260505032058 47 250 0.0 2.0 0.00 0.17 0.07 99 1010.2
20260505031848 47 232 0.0 2.0 0.00 0.17 0.07 99 1010.2
20260505031649 47 212 0.0 1.0 0.00 0.17 0.07 99 1010.2
20260505031439 47 236 0.0 1.0 0.00 0.17 0.07 99 1010.2
20260505031232 47 221 0.0 0.0 0.00 0.17 0.07 99 1010.3
20260505031029 47 231 0.0 0.0 0.00 0.16 0.06 99 1010.3
20260505030823 47 224 0.0 0.0 0.03 0.16 0.06 99 1010.2
20260505030621 47 203 0.0 0.0 0.03 0.16 0.06 99 1010.2
20260505030056 47 202 0.0 0.0 0.03 0.16 0.06 99 1010.3
20260505025849 47 203 0.0 0.0 0.03 0.16 0.06 99 1010.2
20260505025329 47 203 0.0 0.0 0.03 0.15 0.05 99 1010.2
20260505025125 47 203 0.0 0.0 0.04 0.15 0.05 99 1010.2
20260505024926 47 203 0.0 0.0 0.04 0.15 0.05 99 1010.2
20260505024726 47 203 0.0 0.0 0.04 0.15 0.05 99 1010.2
20260505024524 47 203 0.0 0.0 0.04 0.15 0.05 99 1010.3
20260505024317 47 203 0.0 0.0 0.04 0.15 0.05 99 1010.2
20260505024111 47 203 0.0 0.0 0.04 0.14 0.04 99 1010.3
20260505023908 47 202 0.0 0.0 0.06 0.14 0.04 99 1010.4
20260505023708 47 203 0.0 0.0 0.07 0.14 0.04 99 1010.4
20260505023508 47 203 0.0 0.0 0.08 0.14 0.04 99 1010.4
20260505023300 47 202 0.0 0.0 0.08 0.14 0.04 99 1010.4
20260505023101 47 202 0.0 0.0 0.06 0.14 0.03 99 1010.4
20260505022858 47 202 0.0 0.0 0.06 0.14 0.03 99 1010.4
20260505022658 47 202 0.0 0.0 0.06 0.14 0.03 99 1010.4
20260505022459 47 201 0.0 1.0 0.04 0.13 0.03 99 1010.5
20260505022256 47 236 0.0 0.0 0.04 0.13 0.03 99 1010.6
20260505022049 47 236 0.0 0.0 0.04 0.13 0.03 99 1010.5
20260505021514 47 236 0.0 0.0 0.03 0.12 0.02 99 1010.7
20260505021307 47 237 0.0 0.0 0.03 0.12 0.02 99 1010.7
20260505021106 47 236 0.0 0.0 0.03 0.12 0.02 99 1010.7
20260505020902 47 236 0.0 0.0 0.03 0.12 0.02 99 1010.8
20260505020701 47 237 0.0 0.0 0.00 0.11 0.01 99 1010.8
20260505020455 47 236 0.0 0.0 0.00 0.11 0.01 99 1010.8
20260505020247 47 236 0.0 0.0 0.00 0.11 0.01 99 1010.8
20260505015359 47 236 0.0 0.0 0.00 0.11 0.01 99 1010.8
20260505014833 47 236 0.0 5.0 0.00 0.11 0.00 99 1011.0
20260505014310 47 129 0.0 0.0 0.00 0.11 0.00 99 1011.0
20260505014110 47 129 0.0 0.0 0.00 0.11 0.00 99 1011.0
20260505013904 47 116 0.0 0.0 0.00 0.11 0.00 99 1011.0
20260505013703 47 116 0.0 1.0 0.00 0.11 0.00 99 1011.0
20260505013501 47 116 0.0 0.0 0.00 0.11 0.00 99 1011.0
20260505013300 47 106 0.0 0.0 0.00 0.11 0.00 99 1011.0
20260505013056 47 106 0.0 0.0 0.00 0.11 0.00 99 1011.0
20260505012855 47 106 0.0 0.0 0.00 0.11 0.00 99 1010.9
20260505012655 47 106 0.0 0.0 0.00 0.11 0.00 99 1010.9
20260505012455 47 99 0.0 0.0 0.00 0.11 0.00 99 1010.8
20260505012256 47 99 0.0 1.0 0.00 0.11 0.00 99 1010.6
20260505012052 48 89 0.0 0.0 0.00 0.11 0.00 100 1010.6
20260505011211 48 81 0.0 0.0 0.00 0.11 0.00 100 1010.7
20260505011005 48 81 0.0 0.0 0.00 0.11 0.00 100 1010.7
20260505010133 48 79 0.0 3.0 0.00 0.10 0.00 100 1010.8
20260505005923 47 79 0.0 3.0 0.00 0.10 0.00 100 1010.8
20260505005352 48 83 1.0 3.0 0.00 0.10 0.00 100 1010.9
20260505005146 48 62 1.0 3.0 0.00 0.10 0.00 100 1010.9
20260505004613 48 79 1.0 3.0 0.00 0.10 0.00 100 1011.0
20260505004408 47 71 1.0 3.0 0.00 0.10 0.00 100 1011.0
20260505004206 47 53 1.0 5.0 0.00 0.10 0.00 100 1011.1
20260505004006 47 67 1.0 5.0 0.00 0.10 0.00 100 1011.0
20260505003801 47 41 1.0 5.0 0.00 0.10 0.00 100 1011.1
20260505003551 47 103 1.0 5.0 0.00 0.10 0.00 100 1011.2
20260505003025 47 59 2.0 5.0 0.00 0.10 0.00 100 1011.2
20260505002822 47 80 2.0 5.0 0.00 0.10 0.00 100 1011.2
20260505002620 47 103 1.0 5.0 0.00 0.10 0.00 100 1011.2
20260505002416 47 84 1.0 5.0 0.00 0.10 0.00 100 1011.2
20260505002210 47 47 1.0 4.0 0.00 0.10 0.00 100 1011.1
20260505002009 47 58 1.0 4.0 0.00 0.10 0.00 100 1011.1
20260505001444 47 56 1.0 4.0 0.00 0.10 0.00 100 1011.3
20260505001235 47 62 1.0 4.0 0.00 0.10 0.00 100 1011.3
20260505000701 47 94 1.0 4.0 0.00 0.10 0.00 100 1011.3
20260505000456 47 65 2.0 4.0 0.00 0.10 0.00 100 1011.3
20260505000250 47 53 2.0 4.0 0.00 0.10 0.00 100 1011.3
20260505000041 47 107 2.0 4.0 0.00 0.10 0.00 99 1011.4
20260504235831 47 81 2.0 4.0 0.00 0.10 0.00 100 1011.4
20260504235625 47 95 1.0 4.0 0.00 0.10 0.00 99 1011.4
20260504235104 47 89 1.0 4.0 0.00 0.10 0.00 99 1011.4
20260504234903 47 102 1.0 4.0 0.00 0.10 0.00 99 1011.4
20260504234658 47 90 1.0 4.0 0.00 0.10 0.00 99 1011.5
20260504234133 47 58 2.0 7.0 0.00 0.10 0.00 99 1011.5
20260504233927 47 118 2.0 7.0 0.00 0.10 0.00 99 1011.5
20260504233722 47 120 2.0 7.0 0.00 0.10 0.00 99 1011.6
20260504233513 47 65 2.0 7.0 0.00 0.10 0.00 99 1011.5
20260504232944 47 96 2.0 7.0 0.00 0.10 0.00 99 1011.6
20260504232740 47 80 2.0 7.0 0.00 0.10 0.00 99 1011.6
20260504232537 47 108 2.0 7.0 0.00 0.10 0.00 99 1011.6
20260504232333 47 65 2.0 6.0 0.00 0.10 0.00 99 1011.7
20260504232123 47 96 2.0 6.0 0.00 0.10 0.00 99 1011.7
20260504231922 47 84 3.0 6.0 0.00 0.10 0.00 99 1011.6
20260504231723 47 49 3.0 6.0 0.00 0.10 0.00 99 1011.6
20260504231513 47 64 3.0 6.0 0.00 0.10 0.00 99 1011.6
20260504231312 47 83 3.0 7.0 0.00 0.10 0.00 99 1011.6
20260504230737 47 91 3.0 7.0 0.00 0.10 0.00 99 1011.7
20260504230529 47 92 3.0 7.0 0.00 0.10 0.00 99 1011.7
20260504230323 47 66 3.0 7.0 0.00 0.10 0.00 99 1011.7
20260504230113 47 53 3.0 7.0 0.00 0.10 0.00 99 1011.8
20260504225912 47 86 3.0 7.0 0.00 0.10 0.00 99 1011.8
20260504225710 47 105 3.0 7.0 0.00 0.10 0.00 99 1011.8
20260504225505 47 62 2.0 7.0 0.00 0.10 0.00 99 1011.9
20260504225304 47 84 1.0 5.0 0.00 0.10 0.00 99 1011.9
20260504224732 47 82 1.0 5.0 0.00 0.10 0.00 99 1012.0
20260504224206 47 75 1.0 5.0 0.00 0.10 0.00 99 1012.0
20260504223636 46 69 0.0 3.0 0.00 0.10 0.00 99 1012.0
20260504222424 47 77 0.0 2.0 0.00 0.10 0.00 98 1012.1
20260504222222 47 78 0.0 2.0 0.00 0.10 0.00 98 1012.1
20260504222012 47 68 0.0 2.0 0.00 0.10 0.00 99 1012.1
20260504221806 47 72 0.0 2.0 0.00 0.10 0.00 99 1012.1
20260504221559 47 89 0.0 1.0 0.00 0.10 0.00 99 1012.1
20260504221358 47 89 0.0 1.0 0.00 0.10 0.00 99 1012.2
20260504221154 47 96 0.0 1.0 0.00 0.10 0.00 99 1012.1
20260504220627 47 97 0.0 0.0 0.00 0.10 0.00 99 1012.2
20260504220426 47 97 0.0 0.0 0.00 0.10 0.00 99 1012.2
20260504220216 47 97 0.0 1.0 0.00 0.10 0.00 99 1012.2
20260504220014 47 97 0.0 1.0 0.00 0.10 0.00 99 1012.3
20260504215804 47 100 0.0 1.0 0.00 0.10 0.10 99 1012.4
20260504215559 47 100 0.0 1.0 0.00 0.10 0.10 99 1012.4
20260504215042 47 101 0.0 0.0 0.00 0.10 0.10 98 1012.4
20260504214832 47 101 0.0 0.0 0.00 0.10 0.10 98 1012.4
20260504214626 47 100 0.0 0.0 0.00 0.10 0.10 98 1012.4
20260504214426 47 100 0.0 0.0 0.00 0.10 0.10 98 1012.4
20260504214226 47 101 0.0 0.0 0.00 0.10 0.10 98 1012.4
20260504213658 47 101 0.0 0.0 0.00 0.10 0.10 98 1012.4
20260504213451 47 100 0.0 0.0 0.00 0.10 0.10 98 1012.4
20260504213248 47 100 0.0 0.0 0.00 0.10 0.10 98 1012.4
20260504213043 47 100 0.0 0.0 0.00 0.10 0.10 98 1012.6
20260504212834 47 100 0.0 0.0 0.00 0.10 0.10 98 1012.6
20260504212635 47 101 0.0 0.0 0.00 0.10 0.10 98 1012.6
20260504212428 47 100 0.0 0.0 0.00 0.10 0.10 98 1012.7
20260504211905 47 101 0.0 0.0 0.00 0.10 0.10 98 1012.5
20260504211655 47 100 0.0 0.0 0.00 0.10 0.10 98 1012.5
20260504211454 47 100 0.0 0.0 0.00 0.10 0.10 97 1012.6
20260504210939 47 100 0.0 1.0 0.00 0.10 0.10 97 1012.6
20260504210732 47 110 0.0 0.0 0.00 0.10 0.10 97 1012.6
20260504210213 47 111 1.0 6.0 0.00 0.10 0.10 97 1012.6
20260504210007 47 122 2.0 6.0 0.00 0.10 0.10 97 1012.6
20260504205803 47 119 2.0 6.0 0.00 0.10 0.10 97 1012.5
20260504205557 47 124 2.0 6.0 0.00 0.10 0.10 97 1012.5
20260504205352 47 136 3.0 6.0 0.00 0.10 0.10 97 1012.5
20260504205146 48 104 3.0 6.0 0.00 0.10 0.10 97 1012.5
20260504204936 47 117 2.0 6.0 0.00 0.10 0.10 96 1012.5
20260504204731 47 115 2.0 6.0 0.00 0.10 0.10 96 1012.5
20260504204209 48 120 1.0 4.0 0.00 0.10 0.10 95 1012.6
20260504204008 48 126 1.0 4.0 0.00 0.10 0.10 96 1012.6
20260504203806 48 92 1.0 4.0 0.00 0.10 0.10 96 1012.6
20260504203603 48 100 1.0 3.0 0.00 0.10 0.10 96 1012.6
20260504203359 48 126 0.0 3.0 0.00 0.10 0.10 96 1012.6
20260504203154 48 126 0.0 3.0 0.00 0.10 0.10 96 1012.6
20260504202626 48 103 0.0 2.0 0.00 0.10 0.10 97 1012.7
20260504202421 48 116 0.0 2.0 0.00 0.10 0.10 97 1012.8
20260504202213 48 124 0.0 2.0 0.00 0.10 0.10 97 1012.8
20260504202007 48 120 0.0 2.0 0.00 0.10 0.10 97 1012.9
20260504201803 48 119 1.0 2.0 0.00 0.10 0.10 97 1012.8
20260504201559 48 132 1.0 2.0 0.00 0.10 0.10 97 1012.7
20260504201354 48 107 1.0 0.0 0.00 0.10 0.10 98 1012.8
20260504201147 48 113 2.0 6.0 0.00 0.10 0.10 98 1012.8
20260504200948 47 89 2.0 6.0 0.00 0.10 0.10 98 1012.8
20260504200749 47 136 2.0 6.0 0.00 0.10 0.10 98 1012.8
20260504200548 47 117 2.0 6.0 0.00 0.10 0.10 98 1012.9
20260504200347 47 117 2.0 6.0 0.00 0.10 0.10 98 1012.9
20260504200144 47 121 2.0 6.0 0.00 0.10 0.10 98 1012.9
20260504195619 47 111 2.0 5.0 0.00 0.10 0.10 97 1012.8
20260504195411 47 108 2.0 5.0 0.00 0.10 0.10 97 1012.7
20260504195203 47 79 2.0 5.0 0.00 0.10 0.10 97 1012.9
20260504194954 47 119 1.0 5.0 0.00 0.10 0.10 96 1013.0
20260504194431 47 117 0.0 2.0 0.00 0.10 0.10 96 1013.2
20260504194232 48 114 0.0 1.0 0.00 0.10 0.10 95 1013.1
20260504194023 48 118 0.0 0.0 0.00 0.10 0.10 95 1013.2
20260504193818 48 241 0.0 0.0 0.00 0.10 0.10 95 1013.2
20260504193611 48 241 0.0 0.0 0.00 0.10 0.10 95 1013.2
20260504193405 48 241 0.0 0.0 0.00 0.10 0.10 95 1013.2
20260504193205 48 241 0.0 0.0 0.00 0.10 0.10 95 1013.2
20260504193006 48 241 0.0 0.0 0.00 0.10 0.10 95 1013.2
20260504192806 48 241 0.0 0.0 0.00 0.10 0.10 95 1013.1
20260504192559 48 241 0.0 1.0 0.00 0.10 0.10 95 1013.2
20260504192359 48 223 0.0 0.0 0.00 0.10 0.10 95 1013.2
20260504191833 48 205 0.0 0.0 0.00 0.10 0.10 95 1013.2
20260504191627 48 205 0.0 0.0 0.00 0.10 0.10 95 1013.1
20260504191416 48 205 0.0 0.0 0.00 0.10 0.10 95 1013.1
20260504191216 48 205 0.0 0.0 0.00 0.10 0.10 95 1013.0
20260504191013 48 204 0.0 0.0 0.00 0.10 0.10 95 1013.1
20260504190806 49 204 0.0 0.0 0.00 0.10 0.10 95 1013.1
20260504190606 49 204 0.0 0.0 0.00 0.10 0.10 94 1013.1
20260504190404 49 203 0.0 0.0 0.00 0.10 0.10 94 1013.1
20260504190202 49 203 0.0 0.0 0.00 0.10 0.10 94 1013.0
20260504185313 49 216 0.0 2.0 0.00 0.10 0.10 95 1013.0
20260504185113 49 212 0.0 2.0 0.00 0.10 0.10 95 1013.1
20260504184543 48 214 0.0 2.0 0.00 0.10 0.10 95 1013.1
20260504184338 48 219 0.0 2.0 0.00 0.10 0.10 95 1013.2
20260504184135 48 205 0.0 2.0 0.00 0.10 0.10 95 1013.2
20260504183927 48 227 0.0 3.0 0.00 0.10 0.10 95 1013.1
20260504183718 48 229 0.0 3.0 0.00 0.10 0.10 95 1013.1
20260504183159 49 207 1.0 3.0 0.00 0.10 0.10 95 1013.1
20260504182634 49 188 1.0 3.0 0.00 0.10 0.10 95 1013.0
20260504182434 49 226 1.0 3.0 0.00 0.10 0.10 95 1013.1
20260504182229 49 210 1.0 3.0 0.00 0.10 0.10 95 1013.1
20260504182028 49 228 1.0 3.0 0.00 0.10 0.10 95 1013.1
20260504181829 48 209 0.0 3.0 0.00 0.10 0.10 95 1013.1
20260504181623 48 223 0.0 3.0 0.00 0.10 0.10 96 1013.2
20260504181420 48 236 0.0 3.0 0.00 0.10 0.10 96 1013.1
20260504181211 48 152 0.0 3.0 0.00 0.10 0.10 95 1013.1
20260504181003 48 229 0.0 3.0 0.00 0.10 0.10 95 1013.3
20260504180801 48 222 1.0 3.0 0.00 0.10 0.10 95 1013.3
20260504180558 48 227 0.0 3.0 0.00 0.10 0.10 96 1013.4
20260504180352 48 233 0.0 3.0 0.00 0.10 0.10 95 1013.4
20260504175827 48 240 0.0 4.0 0.00 0.10 0.10 95 1013.4
20260504175619 48 222 0.0 4.0 0.00 0.10 0.10 95 1013.4
20260504175420 48 226 0.0 4.0 0.00 0.10 0.10 95 1013.5
20260504175212 48 208 0.0 4.0 0.00 0.10 0.10 95 1013.4
20260504175005 48 210 1.0 4.0 0.00 0.10 0.10 95 1013.4
20260504174803 48 222 1.0 4.0 0.00 0.10 0.10 95 1013.4
20260504174600 48 214 1.0 4.0 0.00 0.10 0.10 94 1013.4
20260504174352 48 232 1.0 4.0 0.00 0.10 0.10 94 1013.4
20260504174150 48 241 1.0 4.0 0.00 0.10 0.10 94 1013.4
20260504173947 48 210 1.0 4.0 0.00 0.10 0.10 94 1013.4
20260504173737 48 192 1.0 4.0 0.00 0.10 0.10 94 1013.5
20260504173213 48 221 1.0 4.0 0.00 0.10 0.10 95 1013.4
20260504173010 48 245 1.0 4.0 0.00 0.10 0.10 95 1013.3
20260504172800 48 219 0.0 4.0 0.00 0.10 0.10 95 1013.4
20260504172551 48 181 0.0 2.0 0.00 0.10 0.10 95 1013.4
20260504172023 48 224 0.0 3.0 0.00 0.10 0.10 96 1013.4
20260504171817 48 221 0.0 3.0 0.00 0.10 0.10 96 1013.4
20260504171616 48 137 0.0 3.0 0.00 0.10 0.10 96 1013.4
20260504171410 48 207 0.0 3.0 0.00 0.10 0.10 96 1013.6
20260504170847 48 241 0.0 2.0 0.00 0.10 0.10 96 1013.6
20260504170328 48 224 0.0 2.0 0.00 0.10 0.10 96 1013.6
20260504170120 48 207 0.0 2.0 0.00 0.10 0.10 96 1013.6
20260504150339 49 201 9.0 15.0 0.00 0.08 0.08 98 1014.2
20260504150134 49 229 9.0 14.0 0.00 0.08 0.08 98 1014.2
20260504141310 49 306 7.0 12.0 0.05 0.07 0.07 97 1014.6
20260504141105 49 212 6.0 12.0 0.07 0.07 0.07 97 1014.7
20260504140857 49 246 6.0 11.0 0.07 0.07 0.07 97 1014.6
20260504140647 49 236 5.0 11.0 0.07 0.07 0.07 97 1014.6
20260504140444 49 229 5.0 11.0 0.07 0.06 0.06 97 1014.6
20260504140244 49 246 5.0 11.0 0.07 0.06 0.06 97 1014.6
20260504130748 51 244 6.0 12.0 0.00 0.00 0.00 95 1014.8
20260504130220 51 241 5.0 12.0 0.00 0.00 0.00 94 1014.7
20260504120128 53 227 4.0 9.0 0.00 0.00 0.00 91 1014.5
20260504110537 55 233 3.0 8.0 0.00 0.00 0.00 83 1014.3